Temp_Advection
nan nan nan nan nan nan nan nan nan nan nan nan nan nan nan nan nan nan nan nan nan nan nan nan nan nan nan nan nan nan nan nan nan nan nan nan nan nan nan nan nan nan nan
nan 0 0 0 0 -0 0 0 0 0 -0 -0 -0 -0 -0 0 0 0 -0 -0 0 -0 -0 -0 -0 -0 -0 -0 -1 -1 -1 -1 -0 -1 -1 -1 -1 -0 -1 -1 -1 -1 nan
nan -0 0 0 0 0 0 0 0 0 0 1 -0 -0 0 0 0 0 0 0 0 0 -0 -0 -0 -0 -0 -1 -1 -1 -1 -0 -0 -2 -1 -0 -1 -0 -1 -1 0 1 nan
nan -0 0 0 0 0 0 0 0 0 0 1 0 -0 0 0 0 0 1 1 0 0 0 0 -0 -0 -1 -1 -1 -0 -0 -1 -2 -2 -0 1 -0 -1 -1 -1 -0 0 nan
nan -0 -0 0 0 0 0 0 0 0 -0 -0 0 -0 0 0 0 1 1 1 0 0 0 0 -1 -1 -1 -2 -3 -3 -3 -3 -3 -1 -1 0 -1 -2 -1 -2 -1 -0 nan
nan -0 -0 -0 -0 -0 0 0 0 0 0 -1 -0 0 0 0 1 0 0 1 1 1 0 0 0 -0 -0 -1 -2 -2 -3 -3 -2 -2 -2 -2 -2 -1 -0 -1 -1 -0 nan
nan -0 -0 -0 -0 -0 0 0 0 -0 -0 0 -0 0 0 1 0 -0 1 2 2 0 1 0 -0 -0 -0 -0 -1 -1 -1 -1 -2 -2 -2 -3 -1 0 0 1 0 1 nan
nan -0 -0 -0 -0 -0 0 -0 -0 -0 -1 0 -0 0 1 1 0 0 1 2 1 1 1 0 -0 -0 -1 0 0 -1 -1 -0 -1 -2 -2 0 -1 -0 1 0 0 -0 nan
nan -0 0 -0 -0 0 0 -0 -0 -0 -0 -0 -1 1 1 1 1 1 2 2 1 3 2 1 1 1 1 -3 -4 -3 -2 1 2 -1 -1 0 0 -1 -0 0 1 -0 nan
nan 0 0 -0 0 1 0 1 0 -0 0 -1 1 3 1 1 2 2 3 3 1 -0 2 2 4 3 0 1 -0 -1 -2 -2 0 0 0 -0 -0 -1 -2 -1 -0 -1 nan
nan 0 -0 0 1 1 1 0 0 1 1 0 2 2 0 -0 1 1 1 -0 0 2 0 0 6 6 0 -0 1 1 0 0 0 -0 -0 1 1 1 -0 -1 -0 -0 nan
nan 0 0 1 1 1 1 1 1 -1 1 1 -0 -1 1 1 -0 0 0 -0 1 -1 -1 2 8 7 2 0 -0 0 1 1 1 -0 -0 -0 0 1 1 0 0 0 nan
nan 0 0 1 0 0 0 -0 -1 -1 -0 -0 0 -1 0 0 1 1 1 0 -2 -1 1 4 6 5 2 0 1 1 1 0 0 1 -0 0 -0 0 0 -0 1 1 nan
nan 0 0 -0 0 0 -0 -1 -1 -1 -1 0 -1 -0 1 0 -0 -0 1 1 0 -1 -0 1 3 4 3 3 2 2 4 3 1 1 1 1 1 0 1 0 0 1 nan
nan -0 -0 0 0 -0 -0 -1 -1 -1 -0 -0 1 1 -1 -1 2 3 2 1 0 0 1 -0 -1 -0 1 2 1 0 3 6 5 1 1 2 2 0 0 1 0 -0 nan
nan -0 -0 -0 -0 -0 -0 -0 0 0 0 1 1 1 1 2 2 1 1 0 -0 1 -1 -4 -3 -1 -0 1 3 3 1 0 4 4 2 1 2 2 1 1 1 0 nan
nan -0 0 0 0 -0 -0 -0 0 0 0 0 0 1 1 2 1 1 1 1 1 -1 -5 -3 0 -0 -0 0 0 0 1 3 3 2 1 2 2 1 1 1 1 1 nan
nan -0 -0 -0 -0 -0 -0 -0 -0 0 0 -0 0 0 1 1 1 1 1 0 -2 -3 -2 -1 -0 -0 -0 0 0 0 0 1 2 2 2 1 2 2 1 1 1 1 nan
nan -0 -0 -0 -0 -0 -0 -0 -0 -0 -0 0 0 -0 0 1 0 0 -0 -1 -1 -1 -1 0 1 1 1 -0 -0 1 0 0 1 1 0 0 1 2 0 1 0 1 nan
nan -0 -0 -0 -0 -0 -0 -0 -0 -0 -0 0 -0 -0 0 0 -0 -1 -1 -0 -1 -1 0 0 0 0 0 1 1 1 -0 -0 -0 -0 -0 0 1 0 -0 2 0 -1 nan
nan -0 -0 -0 -0 -0 -0 -0 -0 -0 -0 -0 0 0 0 -0 -0 -0 0 -0 -0 -0 0 0 -0 -0 0 0 1 0 0 0 0 0 0 0 0 0 0 0 0 0 nan
nan -0 -0 -0 -0 -0 -0 -0 -0 -0 -0 -0 -0 0 0 -0 0 0 0 -0 -0 -0 -0 -0 -0 0 0 -0 -0 0 -0 -0 0 0 0 0 0 0 0 0 -0 -0 nan
nan -0 -0 -0 -0 -0 -0 -0 -0 -0 -0 -0 -0 0 -0 -0 0 -0 -0 -0 -0 -0 -0 0 -0 -0 -0 -0 -0 0 0 -0 -1 0 0 -0 -0 -0 0 -0 -0 -0 nan
nan -0 -0 -0 -0 -0 -0 -0 -0 -0 -0 -0 -0 -0 0 0 -0 -0 -0 -0 -0 -0 -0 -0 -0 -0 -0 -0 -0 -0 -0 -0 0 -0 -0 -0 -0 -0 -0 -0 -0 -0 nan
nan -0 -0 -0 -0 -0 -0 -0 -0 -0 -0 -0 0 0 -0 -0 -0 0 -0 -0 -0 -0 -0 -0 -0 -0 -0 -0 -0 -0 -0 -0 -0 -0 -0 -0 -0 -0 -0 -0 -0 -0 nan
nan nan nan nan nan nan nan nan nan nan nan nan nan nan nan nan nan nan nan nan nan nan nan nan nan nan nan nan nan nan nan nan nan nan nan nan nan nan nan nan nan nan nan
Wind_Speed
14 15 18 20 22 24 25 26 28 30 30 30 30 40 25 33 22 19 18 15 14 15 16 19 21 23 27 28 29 32 31 30 29 18 18 26 20 25 26 25 24 46 47
14 17 20 21 24 26 27 28 29 31 30 29 45 29 39 24 23 20 16 14 12 13 13 15 22 26 29 31 32 33 33 33 33 26 20 28 27 28 28 25 32 58 49
14 17 21 23 26 28 29 29 29 29 30 39 44 29 30 25 25 25 19 14 10 7 7 6 17 25 30 31 32 34 33 33 33 27 16 23 33 31 26 28 40 61 46
15 18 22 25 26 28 29 29 29 30 37 43 36 39 25 26 26 23 22 17 11 7 5 5 7 17 25 30 30 32 33 34 33 29 18 26 33 30 32 37 45 42 43
16 19 21 23 25 28 29 30 31 34 37 36 41 36 29 26 27 24 22 19 17 14 10 12 14 16 21 29 33 33 32 33 33 28 21 28 32 47 38 51 51 52 52
17 19 21 24 26 28 30 32 33 34 33 40 46 42 36 30 21 22 27 25 22 18 20 17 16 14 17 23 26 29 29 32 29 28 30 32 48 31 55 62 58 53 51
17 19 21 24 27 28 30 32 35 35 38 42 44 45 45 31 22 28 34 34 29 24 22 16 16 21 20 21 21 24 29 28 27 28 38 48 41 56 60 59 58 48 43
17 19 21 25 27 30 32 34 34 36 37 40 38 45 50 41 26 33 38 38 37 34 27 24 24 26 37 39 33 30 27 28 34 37 36 54 66 60 57 61 62 54 53
18 20 23 27 29 31 34 34 33 32 34 35 38 43 49 50 36 38 41 39 44 45 43 39 36 39 50 38 52 51 42 42 47 61 58 63 62 58 61 66 58 61 55
18 20 21 24 29 27 27 32 31 32 33 34 36 43 48 51 47 42 46 43 44 46 46 44 49 49 39 47 44 47 54 64 63 61 59 58 60 56 57 55 57 58 58
15 19 24 26 26 27 29 31 33 37 37 38 39 42 45 47 47 48 47 49 47 46 45 45 44 43 50 47 52 54 58 53 55 59 58 62 62 58 51 52 48 48 49
16 19 21 22 29 33 33 36 39 42 46 44 45 44 45 45 48 48 49 51 49 49 46 42 41 42 44 42 41 48 53 56 60 51 61 58 57 55 52 51 51 50 48
18 23 27 26 28 33 35 37 41 44 49 51 50 49 49 46 45 48 50 50 52 51 45 40 38 40 41 41 38 37 39 42 50 50 56 51 50 51 50 47 48 45 44
17 18 22 26 29 31 34 36 39 43 46 48 50 50 48 48 47 46 49 51 54 55 50 48 50 49 45 45 42 43 48 46 46 53 48 49 53 53 47 40 38 41 41
15 16 18 21 25 28 32 34 36 39 41 42 44 45 45 47 45 44 45 49 54 59 59 58 56 55 53 51 48 45 47 51 53 51 50 52 48 47 49 41 36 35 37
12 15 17 17 18 21 25 28 30 32 34 36 36 38 40 40 41 47 48 49 53 54 62 64 64 61 57 54 52 49 45 44 45 45 45 46 44 43 41 40 35 30 31
12 14 14 16 17 19 21 23 26 28 30 32 32 33 36 37 40 46 49 53 56 59 64 60 60 59 58 56 53 51 50 49 44 41 42 43 42 41 43 41 36 33 33
11 11 12 14 16 16 18 20 22 24 26 28 29 30 32 34 36 41 45 51 58 60 59 59 58 55 53 53 53 54 52 50 52 52 51 50 47 50 47 41 36 35 32
9 10 12 13 14 15 16 17 19 22 23 23 24 26 29 29 31 37 42 50 51 52 52 53 53 53 53 52 50 48 47 47 47 46 45 42 42 40 41 39 31 31 26
8 9 9 10 11 12 13 15 17 19 20 20 21 23 24 23 30 35 39 40 43 43 43 45 46 47 47 47 47 47 47 47 45 43 41 39 37 36 35 33 27 24 24
7 7 8 8 9 10 11 12 13 14 16 17 18 19 21 23 26 28 30 33 34 35 36 36 37 38 39 40 40 41 42 42 41 40 39 38 37 38 35 32 29 26 23
7 7 6 6 7 7 8 9 10 11 12 13 15 16 17 19 21 23 24 26 27 27 28 29 30 30 31 32 32 33 34 34 34 33 32 32 31 30 28 27 25 24 21
8 7 6 6 5 6 5 6 7 8 9 10 11 12 14 15 17 18 19 20 21 21 22 22 23 24 25 25 25 25 25 26 26 24 24 23 23 22 21 20 18 17 14
10 9 8 6 6 5 4 4 4 5 6 6 7 8 9 11 12 13 14 14 15 15 16 17 17 18 18 18 18 18 18 18 18 17 16 16 15 15 13 11 10 9 7
13 12 10 9 7 7 6 5 4 4 4 4 4 5 5 6 7 8 9 9 10 10 11 11 12 12 12 12 12 12 12 12 12 12 10 10 9 9 7 5 4 3 2
14 14 13 12 11 10 8 7 6 6 5 5 4 4 4 4 3 3 3 4 5 5 6 7 6 7 7 7 7 8 8 8 8 8 7 6 6 5 4 3 3 4 5
Wind_Direction
1 356 349 352 352 351 351 350 350 349 349 346 328 333 338 339 340 338 326 315 299 283 267 254 243 230 225 221 216 212 216 215 216 206 196 186 194 196 207 204 197 182 170
3 355 353 357 356 355 358 357 356 355 357 337 344 352 341 348 351 339 329 323 305 282 262 251 238 227 221 216 210 205 210 211 213 221 193 188 191 197 205 196 184 169 174
4 359 357 2 360 1 1 2 358 0 355 345 0 1 351 354 353 352 352 347 343 320 295 262 222 215 210 205 202 201 205 207 211 215 194 182 184 193 197 185 174 173 175
7 6 2 6 1 5 5 5 3 5 1 3 360 358 357 4 359 359 14 19 26 21 34 80 151 173 184 186 188 195 199 202 203 200 190 166 189 191 177 159 172 175 173
12 8 8 8 6 8 7 10 7 6 5 7 356 17 15 12 12 17 35 39 51 69 95 99 120 144 160 171 178 185 187 189 192 199 192 170 183 167 174 165 167 165 159
17 11 9 12 9 12 10 10 13 13 6 3 16 29 26 25 28 44 49 55 57 70 84 96 110 133 145 154 158 164 176 182 189 184 177 180 173 175 150 164 155 145 144
21 12 15 16 15 14 15 14 17 12 13 11 15 34 36 34 43 51 57 61 71 72 84 100 124 136 155 173 184 184 179 174 181 189 182 172 167 156 149 144 151 150 137
25 17 17 21 19 16 19 18 17 15 16 15 14 32 39 42 47 60 64 67 70 75 80 100 113 120 125 123 141 152 173 166 158 172 179 142 143 145 141 139 143 140 140
29 21 20 22 19 21 23 21 19 22 25 22 18 35 43 46 49 62 66 66 69 68 78 94 102 114 122 133 126 131 135 133 126 135 126 132 136 143 136 140 138 142 141
32 25 27 30 21 25 30 26 32 38 42 37 27 39 46 49 51 55 66 66 66 68 71 83 89 112 122 108 122 110 109 116 118 131 126 129 134 133 145 141 143 145 148
37 36 35 37 29 38 46 49 50 46 52 50 48 40 48 51 58 58 61 69 65 68 70 71 80 97 104 109 101 113 114 126 130 127 132 127 140 144 143 141 145 148 145
46 42 39 43 48 51 54 52 53 56 54 54 54 55 49 53 59 62 65 69 70 70 69 73 81 97 105 111 103 104 110 132 133 128 131 135 140 137 141 146 149 152 153
55 55 52 52 55 59 58 55 54 52 54 55 52 54 54 56 59 65 68 69 73 74 75 81 89 98 103 102 113 118 117 114 134 141 124 131 136 138 144 148 151 153 156
64 56 55 58 57 56 57 57 55 53 51 52 55 52 53 54 59 62 67 70 73 75 77 81 86 92 96 102 106 112 115 120 121 127 142 135 138 143 143 146 150 150 153
70 66 62 54 55 55 55 54 53 52 49 49 51 53 55 57 58 65 70 73 74 76 76 78 82 84 88 90 94 98 107 116 119 124 131 131 138 145 145 153 152 155 152
76 76 69 65 60 55 57 58 58 58 57 56 57 59 63 66 67 70 72 75 78 78 78 74 75 78 81 84 89 94 98 102 111 120 125 126 130 140 142 143 147 152 150
91 79 75 73 69 67 67 66 64 64 64 62 60 61 61 65 67 71 72 73 74 74 74 75 75 76 79 82 86 91 95 101 106 111 116 121 131 135 135 134 138 141 135
105 98 94 87 82 78 75 73 70 69 67 66 65 64 65 65 67 70 73 74 72 71 72 74 76 78 79 81 84 87 91 97 103 109 112 113 114 116 110 107 111 116 116
118 105 98 94 92 88 82 79 77 75 71 70 70 71 69 67 68 71 70 71 72 72 74 74 76 77 78 80 83 85 88 90 93 97 99 102 106 109 109 111 113 118 120
124 117 109 102 96 89 85 83 81 80 78 76 74 73 75 75 69 68 70 71 73 74 74 76 77 77 78 79 81 84 86 87 88 89 92 93 95 96 96 98 103 105 105
146 133 124 112 100 92 86 82 79 79 80 79 78 77 76 74 74 73 73 75 76 77 76 75 76 78 79 80 82 83 84 85 85 86 87 88 91 92 95 98 102 104 106
167 158 145 128 117 108 98 88 82 78 76 75 74 73 71 74 75 74 73 75 75 76 77 78 80 79 79 79 79 80 82 82 84 85 87 89 91 92 94 96 98 99 100
185 184 176 162 149 135 121 109 99 89 82 79 78 76 75 75 74 75 75 76 79 78 78 77 76 78 79 79 79 80 80 82 84 83 83 84 84 84 84 86 86 86 87
196 196 199 191 181 174 160 144 130 113 99 89 79 75 78 81 82 81 79 76 75 79 82 82 83 82 82 82 83 84 84 85 85 84 83 83 83 83 82 82 85 82 73
207 205 208 207 204 202 196 191 179 167 152 138 119 101 84 71 69 75 81 85 87 86 84 80 78 79 82 87 90 92 95 95 94 93 92 89 88 87 87 80 62 47 14
220 218 217 216 214 218 215 216 209 205 200 195 186 169 152 135 119 101 89 92 95 94 92 95 97 95 92 93 90 85 83 77 73 71 71 63 59 51 46 25 341 304 295
Height
1504 1501 1496 1492 1488 1484 1479 1472 1467 1460 1453 1445 1433 1423 1415 1405 1397 1390 1385 1380 1377 1374 1373 1372 1373 1376 1380 1386 1393 1400 1406 1412 1416 1417 1421 1430 1436 1442 1446 1455 1463 1464 1482
1505 1501 1497 1492 1489 1484 1478 1472 1466 1459 1452 1441 1431 1419 1411 1400 1391 1383 1377 1374 1370 1367 1365 1364 1363 1367 1371 1378 1386 1392 1399 1406 1412 1414 1419 1425 1432 1439 1444 1451 1460 1471 1485
1506 1503 1498 1493 1489 1484 1478 1473 1466 1459 1451 1439 1427 1417 1406 1396 1386 1382 1378 1371 1367 1362 1359 1355 1352 1355 1362 1369 1378 1386 1394 1402 1408 1412 1417 1424 1431 1437 1444 1451 1460 1473 1488
1508 1504 1499 1496 1491 1486 1480 1474 1466 1460 1450 1436 1428 1419 1403 1394 1387 1378 1376 1367 1364 1360 1355 1349 1348 1350 1356 1364 1373 1382 1390 1397 1404 1409 1415 1421 1430 1437 1445 1451 1460 1475 1488
1509 1505 1502 1498 1494 1489 1482 1475 1468 1461 1451 1442 1431 1418 1404 1395 1392 1382 1374 1368 1366 1361 1355 1351 1349 1351 1356 1362 1369 1377 1386 1394 1401 1407 1413 1421 1429 1435 1442 1454 1466 1474 1484
1512 1508 1505 1501 1497 1491 1483 1477 1471 1463 1455 1442 1432 1419 1407 1403 1395 1381 1377 1371 1367 1360 1358 1355 1356 1359 1362 1365 1371 1378 1385 1392 1399 1404 1411 1416 1425 1431 1440 1455 1464 1476 1488
1514 1511 1507 1504 1500 1493 1487 1480 1474 1464 1456 1444 1435 1425 1416 1408 1400 1390 1384 1372 1371 1368 1364 1362 1359 1361 1363 1368 1373 1379 1386 1393 1399 1404 1407 1418 1422 1433 1440 1452 1469 1480 1488
1518 1514 1510 1507 1503 1496 1490 1483 1476 1468 1461 1452 1441 1432 1423 1415 1406 1398 1388 1381 1377 1373 1366 1363 1364 1365 1369 1371 1373 1379 1387 1393 1398 1406 1409 1412 1426 1439 1453 1462 1470 1479 1494
1521 1517 1513 1511 1507 1500 1494 1488 1482 1475 1466 1459 1448 1438 1428 1422 1413 1402 1395 1387 1386 1380 1376 1374 1370 1369 1372 1378 1376 1387 1394 1403 1406 1405 1413 1424 1435 1447 1453 1461 1476 1488 1504
1526 1522 1518 1515 1511 1505 1499 1494 1488 1481 1473 1466 1456 1445 1437 1431 1422 1411 1401 1393 1388 1386 1386 1380 1379 1379 1384 1383 1383 1388 1391 1397 1403 1417 1427 1436 1449 1456 1471 1480 1489 1498 1510
1531 1527 1523 1519 1516 1510 1506 1499 1493 1486 1480 1471 1463 1454 1446 1439 1434 1424 1417 1408 1402 1400 1396 1393 1392 1393 1393 1398 1399 1402 1405 1413 1420 1428 1437 1446 1458 1471 1484 1495 1510 1519 1523
1535 1532 1529 1525 1521 1517 1512 1508 1501 1492 1485 1479 1473 1465 1458 1451 1445 1439 1431 1425 1420 1413 1412 1412 1408 1406 1408 1411 1413 1418 1422 1427 1434 1442 1449 1461 1473 1484 1498 1507 1517 1524 1532
1539 1537 1535 1531 1528 1523 1519 1515 1509 1502 1494 1488 1483 1476 1471 1467 1460 1454 1448 1440 1434 1429 1428 1427 1421 1419 1420 1422 1427 1432 1436 1442 1446 1453 1460 1469 1481 1495 1504 1513 1521 1528 1537
1545 1543 1541 1538 1535 1531 1527 1523 1518 1512 1506 1500 1495 1490 1485 1479 1474 1470 1463 1457 1451 1446 1442 1438 1435 1433 1434 1436 1439 1443 1449 1455 1461 1467 1476 1483 1491 1501 1510 1522 1530 1537 1544
1549 1548 1547 1545 1542 1539 1535 1532 1528 1523 1520 1515 1509 1506 1501 1494 1490 1488 1480 1474 1468 1462 1458 1452 1447 1447 1449 1451 1454 1457 1461 1467 1472 1479 1487 1494 1501 1507 1517 1528 1537 1545 1549
1553 1553 1553 1551 1549 1547 1545 1542 1539 1536 1533 1529 1526 1523 1518 1514 1510 1502 1497 1492 1485 1480 1471 1468 1467 1468 1468 1470 1470 1472 1475 1479 1485 1491 1496 1502 1510 1518 1526 1533 1542 1550 1557
1557 1557 1557 1557 1555 1554 1553 1551 1548 1547 1543 1540 1538 1535 1531 1528 1524 1516 1511 1507 1501 1494 1487 1491 1490 1491 1492 1492 1492 1492 1493 1496 1500 1504 1508 1514 1521 1528 1533 1542 1550 1556 1563
1560 1560 1561 1561 1560 1560 1559 1558 1557 1555 1552 1550 1547 1546 1544 1541 1537 1532 1526 1521 1512 1510 1510 1510 1511 1512 1513 1513 1514 1513 1514 1516 1517 1520 1524 1528 1533 1538 1543 1550 1557 1562 1566
1563 1564 1564 1564 1565 1565 1564 1564 1563 1562 1561 1559 1558 1556 1554 1553 1550 1546 1541 1533 1532 1531 1531 1530 1530 1530 1529 1529 1530 1531 1533 1535 1537 1539 1541 1544 1547 1549 1550 1556 1562 1567 1569
1566 1566 1567 1568 1568 1568 1568 1568 1568 1568 1567 1566 1565 1564 1563 1562 1558 1554 1551 1550 1547 1548 1548 1546 1545 1545 1546 1546 1547 1549 1549 1550 1552 1554 1555 1558 1561 1562 1564 1567 1572 1577 1580
1567 1568 1569 1570 1570 1571 1571 1572 1572 1572 1572 1571 1571 1571 1570 1568 1566 1566 1564 1562 1562 1561 1560 1560 1561 1561 1561 1562 1564 1564 1564 1565 1566 1568 1569 1571 1573 1574 1578 1581 1585 1587 1590
1568 1569 1571 1572 1573 1573 1574 1574 1575 1576 1576 1576 1575 1575 1575 1575 1574 1573 1572 1571 1571 1572 1572 1573 1573 1574 1574 1574 1574 1575 1576 1576 1578 1580 1581 1583 1585 1587 1590 1592 1594 1595 1598
1568 1570 1572 1573 1574 1575 1576 1577 1578 1578 1578 1579 1579 1580 1580 1579 1579 1579 1579 1581 1581 1581 1581 1581 1581 1582 1582 1583 1585 1586 1586 1586 1587 1590 1591 1592 1593 1594 1596 1597 1599 1601 1604
1568 1570 1571 1573 1575 1576 1577 1578 1579 1580 1581 1581 1581 1582 1583 1584 1584 1584 1585 1585 1585 1587 1588 1588 1589 1590 1591 1591 1592 1593 1593 1593 1594 1596 1598 1599 1600 1600 1602 1604 1604 1605 1606
1566 1568 1570 1572 1574 1576 1577 1579 1580 1581 1582 1583 1584 1584 1585 1585 1585 1587 1588 1589 1590 1591 1592 1592 1592 1593 1594 1595 1596 1597 1598 1598 1599 1600 1602 1602 1603 1603 1604 1606 1607 1607 1607
1564 1567 1568 1571 1573 1575 1577 1578 1580 1581 1583 1584 1585 1586 1587 1588 1589 1589 1590 1591 1592 1593 1593 1594 1595 1595 1596 1597 1597 1598 1598 1598 1599 1601 1601 1602 1602 1603 1603 1604 1606 1608 1608